Location: Bishop�s Knoyle
(51.0728°N, 2.1714°W)
Time: 08:23:15
(UTC+00:00)

BEESAT 2 - Pass Details

Date: 02 December 2021
Orbit: 498 x 513 km, 64.9° (Epoch: 20 January)

Event Time Altitude Azimuth Distance (km) Brightness Sun altitude
Exits shadow 04:53:25 18° 28° (NNE) 1,307 ? -27.0°
Drops below altitude 10° 04:56:06 10° 71° (ENE) 1,750 ? -26.5°
Sets 04:58:48 0° 90° (E) 2,632 ? -26.1°
